Regional Weather Roundup
Issued by NWS Jackson, KY

Home | Current Version | Previous Version | Graphics & Text | Print | Product List | Glossary On
Versions: 1 2 3 4 5 6 7 8 9 10 11 12 13 14 15 16 17 18 19 20 21 22 23 24 25 26 27 28 29 30 31 32 33 34 35 36 37 38 39 40 41 42 43 44 45 46 47 48 49 50
000
ASUS43 KJKL 260510
RWRJKL

EAST KENTUCKY HOURLY WEATHER ROUNDUP
NATIONAL WEATHER SERVICE JACKSON KY
1200 AM EST SUN FEB 26 2017

NOTE: "FAIR" INDICATES FEW OR NO CLOUDS BELOW 12,000 FEET WITH
NO SIGNIFICANT WEATHER AND/OR OBSTRUCTIONS TO VISIBILITY.

* THESE REPORTS ARE NOT UNDER NWS QUALITY CONTROL AND MAY NOT
  REPORT WEATHER SUCH AS PRECIPITATION AND FOG.

KYZ079-080-083-085-087-088-110-112-115-119-120-260600
...EASTERN KENTUCKY...

CITY           SKY/WX    TMP DP  RH WIND       PRES   REMARKS
JACKSON        CLOUDY    30  19  63 SW3       30.08S
LONDON         CLEAR     28  20  71 CALM      30.11R
SOMERSET*      CLEAR     28  23  80 CALM      30.14S
MONTICELLO*    CLEAR     21  18  88 NW8       30.15S WCI  11
WILLIAMSBURG*  CLEAR     28  21  74 CALM      30.12S
MIDDLESBORO*   CLEAR     31  22  69 CALM      30.13R
HARLAN APT*    PTCLDY    32  19  59 SW3       30.09S
PIKE CO APT*   CLOUDY    31  19  62 SW3       30.08S
BIG SANDY APT* CLOUDY    33  19  56 W3        30.09S
MOREHEAD APT*  CLOUDY    30  19  64 W5        30.11R WCI  25
ASHLAND*       CLOUDY    34  18  51 W8        30.08S WCI  27
$$

KYZ035-036-041-042-044-050-067-078-099-260600
...CENTRAL KENTUCKY...

CITY           SKY/WX    TMP DP  RH WIND       PRES   REMARKS
FLEMING/MASON* CLEAR     26  19  75 SW6       30.10S WCI  20
DANVILLE*      PTCLDY    32  18  55 NW5       30.12S WCI  27
LEXINGTON      CLEAR     29  17  61 SW3       30.10S
FRANKFORT      CLEAR     28  17  63 SW3       30.09S
LOUISVILLE     CLEAR     31  16  54 W6        30.12S WCI  25
LEBANON*         N/A     30  19  64 CALM      30.12S
GLASGOW*       CLEAR     27  22  82 CALM      30.13S
BOWLING GREEN  CLEAR     32  19  58 CALM      30.15S
$$

KYZ091>093-OHZ055-061-077-WVZ005-015-034-035-042-260600
...SOUTHERN OHIO/WEST VIRGINIA...

CITY           SKY/WX    TMP DP  RH WIND       PRES   REMARKS
COVINGTON      CLEAR     28  17  63 SW6       30.06R WCI  22
COLUMBUS       CLOUDY    32  17  54 W16       30.03R WCI  21
DAYTON         MOCLDY    28  19  69 W13       30.04R WCI  17
WILMINGTON     CLEAR     28  17  63 SW8       30.04R WCI  20
HUNTINGTON     CLOUDY    32  19  58 SW6       30.08S WCI  26
CHARLESTON     CLOUDY    33  15  47 W10G21    30.07R WCI  25
PINEVILLE*     CLOUDY    33  18  55 MISG      30.08S
BECKLEY        CLOUDY    28  16  60 W20G29    29.98R WCI  15
BLUEFIELD      CLOUDY    26  15  63 W24G35    29.96R WCI  11
LOGAN CO APT*  CLOUDY    30  19  64 VRB6      30.05R WCI  24
$$

VAZ002-007-008-TNZ017-027-036-066-071-260600
...SOUTHWEST VIRGINIA/EAST TENNESSEE...

CITY           SKY/WX    TMP DP  RH WIND       PRES   REMARKS
WISE*          CLOUDY    30  21  69 NW3       30.03S
JONESVILLE*      N/A     32  19  59 W6        30.12R WCI  26
ABINGDON*      CLEAR     34  19  55 NW7       30.03R WCI  28
BRISTOL        CLEAR     35  18  49 W14G21    30.07R WCI  26
MORRISTOWN*    CLEAR     34  19  55 N7        30.09R WCI  28
SEVIERVILLE*   CLEAR     36  18  48 W5        30.11R WCI  32
KNOXVILLE      CLEAR     38  20  48 CALM      30.10S
LAFOLLETTE*    CLEAR     32  21  64 CALM      30.14S
OAK RIDGE      CLEAR     34  23  64 CALM      30.12S
CROSSVILLE     CLEAR     30  18  60 CALM      30.09S
NASHVILLE      CLEAR     35  19  52 W3        30.16R
$$

...KEY TO REMARKS...
VSB - VISIBILITY IN MILES
WCI - WIND CHILL INDEX
HX  - HEAT INDEX

$$



USA.gov is the U.S. government's official web portal to all federal, state and local government web resources and services.